STARLINK-34220, 64930

Orbit data source: Space-Track

STARLINK-34220, 64930 is a payload satellite owned by SpaceX/Seattle (US) in LEO that was launched on Sat, 26 Jul 2025 UTC via an FALCON 9 launch vehicle from the Air Force Eastern Test Range (AFETR). Payload-class satellites include a variety of spacecraft equipped with specific instruments for various scientific and technological missions. These include communications satellites like Starlink; space stations such as the ISS; scientific satellites like the Hubble; Earth observation satellites from companies like Planet Labs, Umbra, and HawkEye 360; GPS; miniature CubeSats for education and research; and military/defense satellites.

Loading next visibility...
Identifier
64930, 2025-157AC
Orbit
LEO
Country
Flag of USUS
Related business
Manufacturer
SpaceX/Seattle
Mission
Operational Commercial Communications
Bus & Motor
STARLINK V2MO, Unknown motor
Mass
575 kg wet, ~530 kg dry
Launch date (UTC)
2025-07-26 (4 months ago)
Launch vehicle
FALCON 9
Launch site
Air Force Eastern Test Range (AFETR)
Object type
Payload
Rocket body
Debris
Shape & HBR
Box + 2 Pan, 17.7 m
Radar Cross Section
36.964 m², Large (>1 m²)

Expand to show TLE details & history
Last TLE update: 14 hours ago

TLE from 14 hours ago
0 STARLINK-34220
1 64930U 25157AC  25340.83019760  .00064988  00000-0  16190-2 0  9994
2 64930  53.1572  60.7403 0001694  78.5985 281.5210 15.39653781 21740
Epoch: 2025-12-06T19:55Z
TLE epoch observation values (Epoch: 2025-12-06T19:55:29.072Z)
Latitude
-0.00004°
Longitude
46.01683°
Altitude
447.805 km
Speed
7.645 km/s
True Right ascension
04h 02m 57s
True Declination
0° 00' 00"
Sunlit
Object was in full shadow at epoch
Visualization orbit readout
Latitude
Unknown
Longitude
Unknown
Altitude
Unknown
Speed
Unknown
Apparent Right ascension
Unknown
Apparent Declination
Unknown
Sunlit
N/A
Visualization observer readout
Local Sidereal Time
07:41:00
Azimuth
Unknown
Elevation
Unknown
Doppler factor
Unknown
Orbital elements
Apogee altitude
448.546 km
Perigee altitude
446.234 km
Semi-major axis
6,825.527 km
Eccentricity
0.00017
Inclination
53.1572°
RAAN
60.7403°
Arg. of periapsis
78.5985°
True anomaly
281.50198°
Mean anomaly
281.521°
Eccentric anomaly
281.51149°
Mean motion
3.84892 °/min
Orbital period
93.53 mins
BSTAR
0.001619
Loading maneuver chart data...
Computing Atmospheric mass density...
Loading historical data...
Loading historical data...
Loading historical data...
Loading historical data...
Loading historical data...
Loading historical data...
Loading historical data...

Documentation

Showing up to 5 results
|